RADUGA 23 [-]

Last updated on Aug. 12, 2020, 5:32 a.m. UTC

1 19928U 89030A   20224.81924806 -.00000279  00000-0  00000-0 0  9996
2 19928  14.1707 348.5217 0019716 139.7739 219.9816  1.00356270113436
UTC
Height (km)
Latitude
Longitude
Inclination
Orbital Period
UTC large
Height (km)
Speed (km/s)
/
Latitude / Longitude
Inclination (degrees)
Orbital Period (minutes)
Azimuth
Elevation
Range (km)
Doppler Factor
iOS Compass Heading
iOS Angle

Next 30 passes for location: Hong Kong

Rise time Rise Azimuth (degrees) Set time Set Azimuth (degrees) Duration Max altitude (degrees)

No matching passes for this satellites